NOAA 16 DEB, 41267

Orbit data source: Space-Track

NOAA 16 DEB, 41267 is space debris in SSO originally from a launch on Thu, 21 Sep 2000 UTC launched from the Air Force Western Test Range (AFWTR). Debris objects in space refer to the collection of defunct objects orbiting the Earth. Examples of debris include non-operational satellites, rocket bodies, and fragments generated from explosions, collisions, or faulty payload assembly.

Loading next visibility...
Identifier
41267, 2000-055FT
Orbit
SSO
Country
Flag of USUS
Related business
Manufacturer
Unknown
Mission
Spacecraft
Bus & Motor
Unknown
Mass
Unknown
Launch date (UTC)
2000-09-21 (26 years ago)
Launch vehicle
Unknown
Launch site
Air Force Western Test Range (AFWTR)
Object type
Payload
Rocket body
Debris
Shape & HBR
Unknown shape, 0.1 m
Radar Cross Section
Medium (>0.1 m² and <1 m²)

Expand to show TLE details & history
Last TLE update: 2 days ago

TLE from 2 days ago
0 NOAA 16 DEB
1 41267U 00055FT  26171.00503493  .00049399  00000-0  33356-2 0  9997
2 41267  98.8065  13.0532 0013556 260.9159  99.0531 15.06337387551476
Epoch: 2026-06-20T00:07Z
TLE epoch observation values (Epoch: 2026-06-20T00:07:15.017Z)
Latitude
-0.00002°
Longitude
103.01476°
Altitude
551.922 km
Speed
7.585 km/s
True Right ascension
00h 52m 12s
True Declination
0° 00' 00"
Sunlit
Object was in daylight at epoch
Visualization orbit readout
Latitude
Unknown
Longitude
Unknown
Altitude
Unknown
Speed
Unknown
Apparent Right ascension
Unknown
Apparent Declination
Unknown
Sunlit
N/A
Visualization observer readout
Local Sidereal Time
21:35:55
Azimuth
Unknown
Elevation
Unknown
Doppler factor
Unknown
Orbital elements
Apogee altitude
553.837 km
Perigee altitude
535.068 km
Semi-major axis
6,922.59 km
Eccentricity
0.00136
Inclination
98.8065°
RAAN
13.0532°
Arg. of periapsis
260.9159°
True anomaly
99.20646°
Mean anomaly
99.0531°
Eccentric anomaly
99.12979°
Mean motion
3.76826 °/min
Orbital period
95.53 mins
BSTAR
0.0033356
Loading maneuver chart data...
Computing Atmospheric mass density...
Loading historical data...
Loading historical data...
Loading historical data...
Loading historical data...
Loading historical data...
Loading historical data...
Loading historical data...

Documentation

Showing up to 5 results
|